Flag for Germany Weather past 2 weeks in Nuremberg, Bavaria, Germany

Now
75 °F

Sunny.


Feels Like: 78 °F
Forecast: 53 / 76 °F
Wind: 6 mph from East

Location: Nuernberg

Current Time: Sep 18, 2014 at 4:50:31 PM

Latest Report: Sep 18, 2014 at 4:20 PM


Visibility: 10 mi

Pressure: 29.89 "Hg

Humidity: 54%

Dew point: 57 °F

Location of NurembergLocation

Historic Weather in Nuremberg — Graph

°F

Nuremberg temperature yesterday

Maximum temperature yesterday: 73 °F (at 3:20 PM)
Minimum temperature yesterday: 52 °F (at 4:50 AM)
Average temperature yesterday: 62 °F

Past Weeks' High & Low Weather Summary

 TemperatureHumidityPressure
High77 °F (Sep 7, 2:20 PM)100% (Sep 4, 5:50 AM)30.12 "Hg (Sep 4, 5:50 AM)
Low46 °F (Sep 11, 5:50 AM)51% (Sep 7, 2:50 PM)29.89 "Hg (Sep 6, 3:50 PM)
Average61 °F87%30.01 "Hg
* Reported Sep 3 3:20 PM — Sep 18 3:50 PM, Nuremberg, Weather by CustomWeather, © 2014

Note: Actual official high and low records may vary slightly from our data, if they occured in-between our weather recording intervals... More about our weather records

Advertising

Nuremberg weather history for previous 24 hours

 ConditionsComfort  
Time TempWeatherWind HumidityBarometerVisibility
3:50 PM
Sep 18
75 °FPassing clouds.5 mph54%29.89 "HgN/A
3:20 PM75 °FPassing clouds.6 mph54%29.89 "HgN/A
2:50 PM75 °FPassing clouds.6 mph54%29.89 "HgN/A
2:20 PM73 °FSunny.5 mph57%29.92 "Hg10 mi
1:50 PM73 °FPassing clouds.6 mph53%29.92 "HgN/A
1:20 PM73 °FPassing clouds.7 mph61%29.92 "HgN/A
12:50 PM72 °FPassing clouds.6 mph61%29.92 "HgN/A
12:20 PM70 °FMild.7 mph64%29.92 "HgN/A
11:50 AM68 °FSunny.5 mph69%29.92 "Hg10 mi
11:20 AM66 °FPassing clouds.5 mph68%29.92 "HgN/A
10:50 AM63 °FPassing clouds.5 mph77%29.95 "HgN/A
10:20 AM61 °FPassing clouds.6 mph83%29.95 "HgN/A
9:50 AM61 °FSunny.6 mph83%29.95 "Hg10 mi
9:20 AM59 °FSunny.6 mph88%29.95 "Hg10 mi
8:50 AM57 °FPassing clouds.5 mph94%29.95 "HgN/A
8:20 AM55 °FPassing clouds.5 mph100%29.92 "HgN/A
7:50 AM55 °FClear.6 mph100%29.92 "Hg10 mi
7:20 AM54 °FClear.5 mph100%29.92 "Hg10 mi
6:50 AM54 °FClear.6 mph100%29.92 "Hg10 mi
6:20 AM54 °FFog.5 mph94%29.92 "HgN/A
5:50 AM54 °FFog.5 mph100%29.92 "HgN/A
5:20 AM52 °FFog.2 mph100%29.92 "HgN/A
4:50 AM52 °FFog.1 mph100%29.92 "HgN/A
4:20 AM52 °FFog.1 mph100%29.92 "HgN/A
3:50 AM54 °FFog.No wind100%29.92 "HgN/A
3:20 AM54 °FFog.1 mph100%29.92 "HgN/A
2:50 AM54 °FFog.No wind100%29.92 "HgN/A
2:20 AM54 °FFog.1 mph100%29.92 "HgN/A
1:50 AM55 °FFog.2 mph100%29.92 "HgN/A
1:20 AM55 °FFog.No wind100%29.92 "HgN/A
12:50 AM57 °FFog.No wind94%29.92 "HgN/A
12:20 AM57 °FClear.2 mph100%29.92 "Hg10 mi
11:50 PM
Sep 17
57 °FClear.5 mph100%29.92 "Hg10 mi
11:20 PM59 °FClear.7 mph88%29.92 "Hg10 mi
10:50 PM59 °FClear.5 mph94%29.92 "Hg10 mi
10:20 PM61 °FClear.5 mph88%29.92 "Hg10 mi
9:50 PM61 °FClear.5 mph88%29.92 "Hg10 mi
9:20 PM63 °FPassing clouds.3 mph83%29.92 "HgN/A
8:50 PM63 °FClear.5 mph83%29.92 "Hg10 mi
8:20 PM64 °FSunny.5 mph78%29.92 "Hg10 mi
7:50 PM64 °FPassing clouds.3 mph78%29.92 "HgN/A
7:20 PM68 °FSunny.2 mph69%29.92 "Hg10 mi
6:50 PM70 °FSunny.5 mph64%29.89 "Hg10 mi
6:20 PM72 °FPassing clouds.6 mph61%29.89 "HgN/A
5:50 PM73 °FPassing clouds.6 mph57%29.89 "HgN/A
5:20 PM73 °FPassing clouds.5 mph57%29.92 "HgN/A
4:50 PM73 °FPassing clouds.7 mph61%29.92 "HgN/A
4:20 PM73 °FPassing clouds.5 mph57%29.92 "HgN/A
Weather by CustomWeather, © 2014

See weather overviewHow to use our weather pages